DLH2FA EDDF-EDDM

Flight info

Callsign DLH2FA
Flight time 0h 55m
Altitude 23000
Route CINDY8S/18 CINDY Z74 HAREM T104 ROKIL ROKIL1A
Aircraft A321/M-SDE3FGHIRWY/LB1

Departure

Time 2026-05-04 17:23
Airport Frankfurt Main Airport (EDDF)

Arrival

Time 2026-05-04 18:18
Airport Munich Airport (EDDM)
Time Latitude Longitude Altitude Speed Heading
2026-05-04 16:51 50.04535 8.56578 354 ft 0 kts 115°
2026-05-04 17:13 50.04553 8.56518 356 ft 4 kts 115°
2026-05-04 17:14 50.04605 8.56479 362 ft 3 kts 204°
2026-05-04 17:14 50.04608 8.56481 361 ft 0 kts 204°
2026-05-04 17:16 50.04602 8.56477 355 ft 2 kts 204°
2026-05-04 17:17 50.04574 8.56457 355 ft 9 kts 204°
2026-05-04 17:17 50.04432 8.56041 359 ft 12 kts 232°
2026-05-04 17:18 50.04351 8.56048 357 ft 13 kts 160°
2026-05-04 17:18 50.04226 8.55887 358 ft 16 kts 249°
2026-05-04 17:19 50.04144 8.55548 360 ft 17 kts 249°
2026-05-04 17:19 50.04118 8.55433 357 ft 9 kts 250°
2026-05-04 17:20 50.04032 8.55072 358 ft 26 kts 249°
2026-05-04 17:20 50.03897 8.54505 359 ft 28 kts 250°
2026-05-04 17:20 50.03805 8.54241 355 ft 28 kts 241°
2026-05-04 17:21 50.03671 8.53681 357 ft 23 kts 250°
2026-05-04 17:21 50.03541 8.53148 357 ft 32 kts 250°
2026-05-04 17:22 50.03465 8.52846 356 ft 26 kts 245°
2026-05-04 17:22 50.03406 8.52624 359 ft 19 kts 237°
2026-05-04 17:23 50.03062 8.52596 355 ft 73 kts 180°
2026-05-04 17:23 50.02244 8.52604 360 ft 158 kts 180°
2026-05-04 17:23 49.99779 8.52619 2106 ft 181 kts 181°
2026-05-04 17:24 49.98513 8.52614 3146 ft 178 kts 180°
2026-05-04 17:24 49.95326 8.56197 4180 ft 235 kts 120°
2026-05-04 17:25 49.94520 8.58469 4711 ft 249 kts 120°
2026-05-04 17:25 49.92761 8.63440 5973 ft 270 kts 121°
2026-05-04 17:26 49.90920 8.68587 7538 ft 276 kts 122°
2026-05-04 17:26 49.88061 8.76522 9851 ft 286 kts 123°
2026-05-04 17:27 49.86021 8.82156 10868 ft 306 kts 123°
2026-05-04 17:27 49.84086 8.87544 13695 ft 273 kts 123°
2026-05-04 17:28 49.82614 8.91607 15001 ft 273 kts 123°
2026-05-04 17:29 49.79768 8.99396 17122 ft 282 kts 123°
2026-05-04 17:29 49.76837 9.07444 18975 ft 292 kts 120°
2026-05-04 17:30 49.74841 9.16554 20588 ft 302 kts 116°
2026-05-04 17:31 49.72738 9.22151 21620 ft 302 kts 132°
2026-05-04 17:31 49.68580 9.29520 23015 ft 309 kts 135°
2026-05-04 17:32 49.65730 9.34563 23863 ft 314 kts 135°
2026-05-04 17:33 49.61187 9.42538 24301 ft 348 kts 135°
2026-05-04 17:33 49.59567 9.45388 24414 ft 359 kts 135°
2026-05-04 17:34 49.54416 9.54459 24753 ft 392 kts 135°
2026-05-04 17:34 49.52570 9.57697 24899 ft 401 kts 135°
2026-05-04 17:35 49.46879 9.67655 24981 ft 421 kts 135°
2026-05-04 17:35 49.43005 9.74415 24977 ft 422 kts 135°
2026-05-04 17:35 49.41062 9.77788 24975 ft 422 kts 135°
2026-05-04 17:36 49.39116 9.81161 24975 ft 422 kts 135°
2026-05-04 17:36 49.37174 9.84524 24961 ft 422 kts 135°
2026-05-04 17:36 49.35224 9.87896 24974 ft 423 kts 135°
2026-05-04 17:36 49.33272 9.91270 24949 ft 421 kts 135°
2026-05-04 17:37 49.31356 9.94578 24705 ft 408 kts 135°
2026-05-04 17:37 49.29481 9.97806 24468 ft 401 kts 135°
2026-05-04 17:37 49.27628 10.00985 24235 ft 399 kts 135°
2026-05-04 17:37 49.25784 10.04146 24003 ft 397 kts 135°
2026-05-04 17:38 49.23950 10.07288 23773 ft 396 kts 135°
2026-05-04 17:38 49.22117 10.10422 23540 ft 394 kts 135°
2026-05-04 17:38 49.20289 10.13545 23271 ft 393 kts 135°
2026-05-04 17:38 49.18469 10.16652 22996 ft 391 kts 135°
2026-05-04 17:39 49.14882 10.22780 22455 ft 388 kts 135°
2026-05-04 17:39 49.13079 10.25837 22191 ft 386 kts 136°
2026-05-04 17:39 49.11252 10.28832 21934 ft 384 kts 137°
2026-05-04 17:40 49.09412 10.31785 21682 ft 383 kts 137°
2026-05-04 17:40 49.07573 10.34706 21419 ft 381 kts 137°
2026-05-04 17:40 49.05735 10.37621 21147 ft 380 kts 137°
2026-05-04 17:40 49.03910 10.40522 20902 ft 378 kts 137°
2026-05-04 17:41 49.02094 10.43414 20658 ft 377 kts 137°
2026-05-04 17:41 49.00286 10.46301 20412 ft 376 kts 137°
2026-05-04 17:41 48.98484 10.49183 20164 ft 375 kts 137°
2026-05-04 17:41 48.96690 10.52051 19920 ft 373 kts 137°
2026-05-04 17:42 48.94902 10.54898 19669 ft 372 kts 137°
2026-05-04 17:42 48.93134 10.57709 19336 ft 364 kts 137°
2026-05-04 17:42 48.91396 10.60477 18894 ft 360 kts 136°
2026-05-04 17:42 48.89673 10.63220 18249 ft 362 kts 136°
2026-05-04 17:43 48.87906 10.66020 17216 ft 372 kts 136°
2026-05-04 17:43 48.86094 10.68886 16217 ft 378 kts 136°
2026-05-04 17:43 48.84301 10.71731 15385 ft 369 kts 136°
2026-05-04 17:43 48.82543 10.74521 14589 ft 362 kts 136°
2026-05-04 17:44 48.80831 10.77238 14084 ft 347 kts 136°
2026-05-04 17:44 48.79140 10.79664 13856 ft 321 kts 144°
2026-05-04 17:44 48.77453 10.81686 13799 ft 300 kts 143°
2026-05-04 17:44 48.75802 10.83682 13572 ft 317 kts 143°
2026-05-04 17:45 48.74100 10.85738 13294 ft 308 kts 143°
2026-05-04 17:45 48.72446 10.87734 13015 ft 299 kts 144°
2026-05-04 17:45 48.70832 10.89678 12680 ft 295 kts 144°
2026-05-04 17:45 48.69233 10.91597 12292 ft 292 kts 144°
2026-05-04 17:46 48.67639 10.93505 11900 ft 290 kts 145°
2026-05-04 17:46 48.66060 10.95390 11525 ft 289 kts 145°
2026-05-04 17:46 48.64485 10.97266 11143 ft 287 kts 145°
2026-05-04 17:46 48.62918 10.99132 10942 ft 286 kts 145°
2026-05-04 17:47 48.61351 11.00998 10947 ft 287 kts 145°
2026-05-04 17:47 48.59916 11.03120 10948 ft 293 kts 127°
2026-05-04 17:47 48.59028 11.05869 10949 ft 297 kts 115°
2026-05-04 17:47 48.58274 11.08780 10947 ft 298 kts 114°
2026-05-04 17:48 48.57535 11.11702 10949 ft 298 kts 114°
2026-05-04 17:48 48.56799 11.14626 10949 ft 298 kts 114°
2026-05-04 17:48 48.56062 11.17552 10948 ft 298 kts 114°
2026-05-04 17:48 48.55413 11.20528 10946 ft 301 kts 104°
2026-05-04 17:49 48.55085 11.23661 10949 ft 302 kts 102°
2026-05-04 17:49 48.54765 11.26793 10937 ft 302 kts 102°
2026-05-04 17:49 48.54446 11.29928 10936 ft 302 kts 102°
2026-05-04 17:49 48.54129 11.33064 10927 ft 302 kts 102°
2026-05-04 17:50 48.53812 11.36206 10931 ft 303 kts 102°
2026-05-04 17:50 48.53494 11.39349 10929 ft 303 kts 102°
2026-05-04 17:50 48.53173 11.42492 10929 ft 303 kts 102°
2026-05-04 17:50 48.52851 11.45643 10930 ft 303 kts 102°
2026-05-04 17:51 48.52528 11.48779 10931 ft 303 kts 102°
2026-05-04 17:51 48.52202 11.51924 10930 ft 303 kts 102°
2026-05-04 17:51 48.51876 11.55061 10931 ft 303 kts 102°
2026-05-04 17:51 48.51549 11.58210 10947 ft 303 kts 102°
2026-05-04 17:52 48.51222 11.61347 10946 ft 303 kts 102°
2026-05-04 17:52 48.50894 11.64494 10812 ft 303 kts 103°
2026-05-04 17:52 48.50567 11.67623 10541 ft 301 kts 103°
2026-05-04 17:52 48.50241 11.70738 10228 ft 300 kts 103°
2026-05-04 17:53 48.49917 11.73842 9913 ft 299 kts 103°
2026-05-04 17:53 48.49594 11.76917 9563 ft 296 kts 102°
2026-05-04 17:53 48.49269 11.79972 9171 ft 295 kts 101°
2026-05-04 17:53 48.48953 11.82949 8737 ft 288 kts 101°
2026-05-04 17:54 48.48639 11.85905 8304 ft 282 kts 101°
2026-05-04 17:54 48.48332 11.88794 7893 ft 277 kts 101°
2026-05-04 17:54 48.48029 11.91641 7406 ft 274 kts 101°
2026-05-04 17:54 48.47726 11.94472 6921 ft 272 kts 100°
2026-05-04 17:55 48.47425 11.97279 6437 ft 270 kts 100°
2026-05-04 17:55 48.47125 12.00066 5939 ft 268 kts 100°
2026-05-04 17:55 48.46917 12.02846 5489 ft 266 kts 92°
2026-05-04 17:55 48.47000 12.05596 5365 ft 262 kts 84°
2026-05-04 17:56 48.47206 12.08318 5243 ft 261 kts 84°
2026-05-04 17:56 48.47406 12.11034 5120 ft 261 kts 84°
2026-05-04 17:56 48.47603 12.13751 4997 ft 260 kts 84°
2026-05-04 17:56 48.47800 12.16458 4869 ft 260 kts 84°
2026-05-04 17:57 48.47898 12.19160 4741 ft 258 kts 97°
2026-05-04 17:57 48.47259 12.21646 4608 ft 257 kts 127°
2026-05-04 17:57 48.45889 12.23330 4486 ft 258 kts 156°
2026-05-04 17:57 48.44136 12.23782 4361 ft 259 kts 186°
2026-05-04 17:58 48.42451 12.22875 4238 ft 260 kts 215°
2026-05-04 17:58 48.41195 12.20918 4126 ft 262 kts 232°
2026-05-04 17:58 48.40122 12.18701 4011 ft 262 kts 235°
2026-05-04 17:58 48.39316 12.16290 4001 ft 262 kts 254°
2026-05-04 17:59 48.39032 12.13632 4001 ft 254 kts 264°
2026-05-04 17:59 48.38846 12.11004 4007 ft 252 kts 264°
2026-05-04 17:59 48.38463 12.05771 4034 ft 252 kts 263°
2026-05-04 18:00 48.38269 12.03153 4004 ft 247 kts 263°
2026-05-04 18:00 48.38083 12.00665 3836 ft 234 kts 264°
2026-05-04 18:00 48.37906 11.98283 3562 ft 224 kts 264°
2026-05-04 18:00 48.37737 11.96027 3293 ft 212 kts 264°
2026-05-04 18:01 48.37578 11.93912 3039 ft 193 kts 264°
2026-05-04 18:01 48.37436 11.92025 2787 ft 171 kts 264°
2026-05-04 18:01 48.37308 11.90327 2571 ft 157 kts 264°
2026-05-04 18:02 48.37110 11.87702 2228 ft 149 kts 265°
2026-05-04 18:02 48.36956 11.85677 1956 ft 146 kts 265°
2026-05-04 18:02 48.36843 11.84167 1767 ft 144 kts 265°
2026-05-04 18:02 48.36727 11.82671 1588 ft 143 kts 264°
2026-05-04 18:03 48.36612 11.81194 1491 ft 134 kts 264°
2026-05-04 18:03 48.36516 11.79738 1717 ft 153 kts 264°
2026-05-04 18:03 48.36420 11.78661 2222 ft 161 kts 262°
2026-05-04 18:03 48.36218 11.76309 3269 ft 183 kts 263°
2026-05-04 18:04 48.36115 11.75016 3819 ft 192 kts 263°
2026-05-04 18:04 48.36189 11.72990 4820 ft 195 kts 284°
2026-05-04 18:04 48.38371 11.70203 5902 ft 236 kts 351°
2026-05-04 18:05 48.39999 11.70517 6495 ft 241 kts 24°
2026-05-04 18:05 48.41331 11.72052 6869 ft 244 kts 53°
2026-05-04 18:05 48.41980 11.74363 6936 ft 241 kts 85°
2026-05-04 18:05 48.41744 11.76805 6942 ft 237 kts 117°
2026-05-04 18:06 48.39455 11.80228 6945 ft 235 kts 129°
2026-05-04 18:06 48.38825 11.82483 6944 ft 239 kts 98°
2026-05-04 18:06 48.39082 11.84939 6946 ft 242 kts 66°
2026-05-04 18:07 48.39972 11.87090 6945 ft 243 kts 56°
2026-05-04 18:07 48.40969 11.89155 6944 ft 243 kts 54°
2026-05-04 18:07 48.41976 11.91206 6950 ft 243 kts 54°
2026-05-04 18:07 48.42980 11.93254 6953 ft 243 kts 54°
2026-05-04 18:08 48.43986 11.95307 6950 ft 243 kts 54°
2026-05-04 18:08 48.44978 11.97334 6950 ft 243 kts 54°
2026-05-04 18:08 48.45930 11.99432 6942 ft 242 kts 65°
2026-05-04 18:08 48.46358 12.01864 6833 ft 241 kts 82°
2026-05-04 18:09 48.46766 12.06750 6248 ft 229 kts 84°
2026-05-04 18:09 48.47116 12.11435 5643 ft 220 kts 84°
2026-05-04 18:10 48.47283 12.13710 5342 ft 216 kts 84°
2026-05-04 18:10 48.47444 12.15932 5106 ft 210 kts 84°
2026-05-04 18:10 48.47596 12.18094 4883 ft 205 kts 84°
2026-05-04 18:10 48.47664 12.20236 4646 ft 204 kts 99°
2026-05-04 18:11 48.47037 12.22102 4421 ft 203 kts 136°
2026-05-04 18:11 48.45783 12.23038 4204 ft 204 kts 168°
2026-05-04 18:11 48.44381 12.23322 4012 ft 205 kts 174°
2026-05-04 18:11 48.42956 12.23507 3935 ft 206 kts 174°
2026-05-04 18:12 48.41524 12.23681 3936 ft 206 kts 175°
2026-05-04 18:12 48.40106 12.23329 3940 ft 215 kts 207°
2026-05-04 18:12 48.39084 12.21844 3924 ft 198 kts 244°
2026-05-04 18:12 48.38917 12.19951 3947 ft 172 kts 283°
2026-05-04 18:13 48.39233 12.18395 3942 ft 146 kts 283°
2026-05-04 18:13 48.39141 12.16985 3858 ft 132 kts 253°
2026-05-04 18:13 48.38970 12.13643 3879 ft 182 kts 268°
2026-05-04 18:14 48.38881 12.11720 3925 ft 185 kts 265°
2026-05-04 18:14 48.38753 12.09782 3937 ft 187 kts 264°
2026-05-04 18:14 48.38613 12.07834 3915 ft 188 kts 263°
2026-05-04 18:15 48.38325 12.03929 3943 ft 188 kts 263°
2026-05-04 18:15 48.38035 12.00019 3768 ft 188 kts 263°
2026-05-04 18:15 48.37890 11.98074 3541 ft 187 kts 264°
2026-05-04 18:16 48.37745 11.96135 3315 ft 185 kts 264°
2026-05-04 18:16 48.37600 11.94204 3071 ft 184 kts 264°
2026-05-04 18:16 48.37463 11.92391 2835 ft 166 kts 264°
2026-05-04 18:17 48.37219 11.89152 2424 ft 151 kts 265°
2026-05-04 18:17 48.37102 11.87593 2216 ft 149 kts 264°
2026-05-04 18:17 48.36870 11.84544 1826 ft 145 kts 265°
2026-05-04 18:18 48.36757 11.83041 1640 ft 144 kts 264°
2026-05-04 18:18 48.36640 11.81553 1496 ft 141 kts 264°
2026-05-04 18:18 48.36550 11.80289 1485 ft 96 kts 263°
2026-05-04 18:18 48.36492 11.79543 1483 ft 47 kts 263°
2026-05-04 18:19 48.36406 11.79406 1481 ft 10 kts 111°
2026-05-04 18:19 48.36391 11.79462 1473 ft 0 kts 111°
2026-05-04 18:19 48.36390 11.79464 1474 ft 2 kts 111°